User: anonymous   Login
Location: Unspecified
(0.0000°N, 0.0000°E)
Time: 08:51:05
(UTC+00:00)
Language:

NOSS 2-2 (D) - Orbit

View from above orbital plane
View from above orbital plane
View from above satellite
View from above satellite

Ground track
Ground track

The orbit data is extracted from the following two-line orbital elements,

1 21808U 91076D   17171.88356589 0.00000110  00000-0  35677-4 0    08
2 21808  63.3460  90.7190 0748000  24.8589 335.1411 13.41120222    00
Epoch (UTC): 20 June 2017 21:12:20
Eccentricity: 0.0748000
inclination: 63.3460°
perigee height: 545 km
apogee height: 1665 km
right ascension of ascending node: 90.7190°
argument of perigee: 24.8589°
revolutions per day: 13.41120222
mean anomaly at epoch: 335.1411°
orbit number at epoch: 0

The dashed part of the orbit path shows where the satellite is in the earth's shadow,  

DLR